Find Starlink 4168

NORAD ID: 52845 Int'l Des: 2022-062 Owner: SPXS Country: US Constellation: starlink operational
LEOCIRCULAR

当前视图

正在加载3D地球...

About Starlink 4168

Starlink 4168 (NORAD 52845) is a starlink constellation satellite (v1.5) launched Jun 17, 2022 by SPXS of US. It operates in LEO, CIRCULAR orbit with a mass of 297.00 kg.

关于 Starlink 4168

正在加载描述...

即将过境

Passes for default location (London). Set your location on the main map for personalized predictions.

高度历史

Loading altitude history...

两行轨道根数

1 52845U 22062R 26169.67422663 .00000601 00000-0 55837-4 0 9995
2 52845 53.1614 300.7434 0001212 90.2658 269.8472 15.08828939221032
Epoch: Jun 18, 2026 • Age: 7 hours

当前状态

高度 545.5 km
速度 7.60 km/s
星下点 53.30°N, 136.67°E
发射日期 Jun 17, 2022
运行时间 4 years
类型 internet

技术详情

分类 Payload
质量 297.00 kg
干质量 275.00 kg
总质量 297.00 kg
长度 0.20 m
直径 2.80 m
跨度 9.00 m
形状 Box + pan
制造商 SPXS
平台类型 Starlink
阶段状态 In Orbit
所有者/国家 SPXS/US

Most Searched